******************************************************************************* JPL/HORIZONS (2024 YR4) 2025-Dec-12 17:52:22 Rec #:50582929 (+COV) Soln.date: 2025-Jun-03_07:47:32 # obs: 477 (2024-2025) IAU76/J2000 helio. ecliptic osc. elements (au, days, deg., period=Julian yrs): EPOCH= 2460705.5 ! 2025-Jan-30.00 (TDB) Residual RMS= .058675 EC= .6615999301423001 QR= .8515188266875525 TP= 2460636.9238411798 OM= 271.3674693540159 W= 134.3644983455991 IN= 3.408259321981154 A= 2.516308070047454 MA= 16.93290662173731 ADIST= 4.181097313407356 PER= 3.99166 N= .246921188 ANGMOM= .020461704 DAN= 2.63285 DDN= .96737 L= 45.7826715 B= 2.4358823 MOID= .00285384 TP= 2024-Nov-22.4238411798 Asteroid physical parameters (km, seconds, rotational period in hours): GM= n.a. RAD= n.a. ROTPER= n.a. H= 23.92 G= .150 B-V= n.a. ALBEDO= n.a. STYP= n.a. ASTEROID comments: 1: soln ref.= JPL#78, OCC=3 2: source=ORB ******************************************************************************* ******************************************************************************* Ephemeris / WWW_USER Fri Dec 12 17:52:22 2025 Pasadena, USA / Horizons ******************************************************************************* Target body name: (2024 YR4) {source: JPL#78} Center body name: Earth (399) {source: DE441} Center-site name: GEOCENTRIC ******************************************************************************* Start time : A.D. 2025-Feb-13 00:00:00.0000 UT Stop time : A.D. 2025-Mar-14 00:00:00.0000 UT Step-size : 1440 minutes ******************************************************************************* Target pole/equ : undefined Target radii : undefined Center geodetic : 0.0, 0.0, -6378.137 {E-lon(deg),Lat(deg),Alt(km)} Center cylindric: 0.0, 0.0, 0.0 {E-lon(deg),Dxy(km),Dz(km)} Center pole/equ : ITRF93 {East-longitude positive} Center radii : 6378.137, 6378.137, 6356.752 km {Equator_a, b, pole_c} Target primary : Sun Vis. interferer : MOON (R_eq= 1737.400) km {source: DE441} Rel. light bend : Sun {source: DE441} Rel. lght bnd GM: 1.3271E+11 km^3/s^2 Small-body perts: Yes {source: SB441-N16} Atmos refraction: NO (AIRLESS) RA format : HMS Time format : CAL Calendar mode : Mixed Julian/Gregorian EOP file : eop.251212.p260310 EOP coverage : DATA-BASED 1962-JAN-20 TO 2025-DEC-12. PREDICTS-> 2026-MAR-09 Units conversion: 1 au= 149597870.700 km, c= 299792.458 km/s, 1 day= 86400.0 s Table cut-offs 1: Elevation (-90.0deg=NO ),Airmass (>38.000=NO), Daylight (NO ) Table cut-offs 2: Solar elongation ( 0.0,180.0=NO ),Local Hour Angle( 0.0=NO ) Table cut-offs 3: RA/DEC angular rate ( 0.0=NO ) ******************************************************************************* Initial IAU76/J2000 heliocentric ecliptic osculating elements (au, days, deg.): EPOCH= 2460705.5 ! 2025-Jan-30.00 (TDB) Residual RMS= .058675 EC= .6615999301423001 QR= .8515188266875525 TP= 2460636.9238411798 OM= 271.3674693540159 W= 134.3644983455991 IN= 3.408259321981154 Equivalent ICRF heliocentric cartesian coordinates (au, au/d): X=-7.817185871179870E-01 Y= 9.591166659204480E-01 Z= 3.666886038072873E-01 VX=-1.831413040000361E-02 VY=-1.487883867213291E-03 VZ=-1.836791648737177E-03 Asteroid physical parameters (km, seconds, rotational period in hours): GM= n.a. RAD= n.a. ROTPER= n.a. H= 23.92 G= .150 B-V= n.a. ALBEDO= n.a. STYP= n.a. ******************************************************************************* Date__(UT)__HR:MN APmag S-brt ************************************** $$SOE 2025-Feb-13 00:00 23.969 n.a. 2025-Feb-14 00:00 24.054 n.a. 2025-Feb-15 00:00 24.137 n.a. 2025-Feb-16 00:00 24.219 n.a. 2025-Feb-17 00:00 24.300 n.a. 2025-Feb-18 00:00 24.380 n.a. 2025-Feb-19 00:00 24.459 n.a. 2025-Feb-20 00:00 24.536 n.a. 2025-Feb-21 00:00 24.612 n.a. 2025-Feb-22 00:00 24.687 n.a. 2025-Feb-23 00:00 24.761 n.a. 2025-Feb-24 00:00 24.834 n.a. 2025-Feb-25 00:00 24.906 n.a. 2025-Feb-26 00:00 24.976 n.a. 2025-Feb-27 00:00 25.046 n.a. 2025-Feb-28 00:00 25.115 n.a. 2025-Mar-01 00:00 25.183 n.a. 2025-Mar-02 00:00 25.249 n.a. 2025-Mar-03 00:00 25.315 n.a. 2025-Mar-04 00:00 25.380 n.a. 2025-Mar-05 00:00 25.444 n.a. 2025-Mar-06 00:00 25.508 n.a. 2025-Mar-07 00:00 25.570 n.a. 2025-Mar-08 00:00 25.631 n.a. 2025-Mar-09 00:00 25.692 n.a. 2025-Mar-10 00:00 25.752 n.a. 2025-Mar-11 00:00 25.811 n.a. 2025-Mar-12 00:00 25.869 n.a. 2025-Mar-13 00:00 25.926 n.a. 2025-Mar-14 00:00 25.983 n.a. $$EOE ******************************************************************************* Column meaning: TIME Times PRIOR to 1962 are UT1, a mean-solar time closely related to the prior but now-deprecated GMT. Times AFTER 1962 are in UTC, the current civil or "wall-clock" time-scale. UTC is kept within 0.9 seconds of UT1 using integer leap-seconds for 1972 and later years. Conversion from the internal Barycentric Dynamical Time (TDB) of solar system dynamics to the non-uniform civil UT time-scale requested for output has not been determined for UTC times after the next July or January 1st. Therefore, the last known leap-second is used as a constant over future intervals. Time tags refer to the UT time-scale conversion from TDB on Earth regardless of observer location within the solar system, although clock rates may differ due to the local gravity field and no analog to "UT" may be defined for that location. Any 'b' symbol in the 1st-column denotes a B.C. date. First-column blank (" ") denotes an A.D. date. CALENDAR SYSTEM Mixed calendar mode was active such that calendar dates after AD 1582-Oct-15 (if any) are in the modern Gregorian system. Dates prior to 1582-Oct-5 (if any) are in the Julian calendar system, which is automatically extended for dates prior to its adoption on 45-Jan-1 BC. The Julian calendar is useful for matching historical dates. The Gregorian calendar more accurately corresponds to the Earth's orbital motion and seasons. A "Gregorian-only" calendar mode is available if such physical events are the primary interest. NOTE: "n.a." in output means quantity "not available" at the print-time. 'APmag S-brt' = The asteroids' approximate apparent airless visual magnitude and surface brightness using the standard IAU H-G system magnitude model: APmag = H + 5*log10(delta) + 5*log10(r) - 2.5*log10((1-G)*phi_1 + G*phi_2) For solar phase angles >90 deg, the error could exceed 1 magnitude. For phase angles >120 degrees, output values are rounded to the nearest integer to indicate error could be large and unknown. For Earth-based observers, the estimated dimming due to atmospheric absorption (extinction) is available as a separate, requestable quantity. Surface brightness is the average airless visual magnitude of a square-arcsecond of the illuminated portion of the apparent disk. It is computed only if the target radius is known. Units: MAGNITUDES & MAGNITUDES PER SQUARE ARCSECOND Computations by ... Solar System Dynamics Group, Horizons On-Line Ephemeris System 4800 Oak Grove Drive, Jet Propulsion Laboratory Pasadena, CA 91109 USA General site: https://ssd.jpl.nasa.gov/ Mailing list: https://ssd.jpl.nasa.gov/email_list.html System news : https://ssd.jpl.nasa.gov/horizons/news.html User Guide : https://ssd.jpl.nasa.gov/horizons/manual.html Connect : browser https://ssd.jpl.nasa.gov/horizons/app.html#/x API https://ssd-api.jpl.nasa.gov/doc/horizons.html command-line telnet ssd.jpl.nasa.gov 6775 e-mail/batch https://ssd.jpl.nasa.gov/ftp/ssd/horizons_batch.txt scripts https://ssd.jpl.nasa.gov/ftp/ssd/SCRIPTS Author : Jon.D.Giorgini@jpl.nasa.gov ******************************************************************************* !$$SOF COMMAND = '2024 YR4' QUANTITIES = '9' START_TIME = '2025-02-13' STEP_SIZE = '1 day' STOP_TIME = '2025-03-14'